period_start,C,m1,H,J0,J1,J2,J3,J4,J5,JA,JB,JC,JD,JJ,JK,JN,#
2013-10-02 00:00:30,0.00,0.22,0.00,20.97,24.15,26.75,6.13,31.88,1016.03,2060.99,3468.01,3302.99,3584.03,350.64,326.61,29.02,0000 0000 0000 0000 000000
2013-10-02 00:01:30,0.00,0.22,0.00,20.98,24.15,26.76,6.14,31.58,1016.06,2061.00,3468.01,3302.99,3584.05,349.76,325.61,29.03,0000 0000 0000 0000 000000
2013-10-02 00:02:30,0.01,0.22,0.00,20.97,24.15,26.77,6.09,31.71,1016.05,2061.01,3468.01,3302.99,3584.06,349.87,325.22,29.04,0000 0000 0000 0000 000000
2013-10-02 00:03:30,0.01,0.22,0.00,20.97,24.15,26.75,6.03,31.58,1015.94,2061.00,3468.00,3302.99,3584.04,349.60,325.59,29.04,0000 0000 0000 0000 000000
2013-10-02 00:04:31,0.00,0.22,0.00,20.97,24.15,26.78,6.08,31.71,1016.08,2061.01,3468.00,3302.99,3584.01,349.77,325.82,29.05,0000 0000 0000 0000 000000
2013-10-02 00:05:31,0.01,0.22,0.00,20.97,24.15,26.77,6.09,31.75,1016.11,2061.04,3468.00,3302.99,3584.01,350.01,326.05,29.05,0000 0000 0000 0000 000000
2013-10-02 00:06:31,0.01,0.22,0.00,20.97,24.15,26.77,6.19,31.88,1015.95,2061.04,3468.00,3302.99,3584.00,350.21,326.03,29.06,0000 0000 0000 0000 000000
2013-10-02 00:07:31,0.00,0.22,0.00,20.97,24.14,26.69,5.98,31.38,1016.08,2061.02,3468.00,3302.99,3584.01,349.98,326.02,29.07,0000 0000 0000 0000 000000
2013-10-02 00:08:32,0.00,0.22,0.00,20.96,24.14,26.74,6.00,31.50,1016.03,2061.04,3468.00,3302.99,3584.01,349.93,325.96,29.07,0000 0000 0000 0000 000000
2013-10-02 00:09:32,0.00,0.22,0.00,20.95,24.13,26.79,6.27,31.75,1016.05,2061.03,3468.00,3302.99,3584.02,350.92,326.22,29.08,0000 0000 0000 0000 000000
2013-10-02 00:10:32,0.00,0.22,0.00,20.95,24.12,26.75,5.90,31.33,1016.05,2061.03,3468.00,3302.99,3584.05,349.92,325.97,29.08,0000 0000 0000 0000 000000
2013-10-02 00:11:33,0.00,0.22,0.00,20.95,24.12,26.74,5.92,31.38,1016.04,2061.03,3468.00,3302.99,3584.05,349.92,325.97,29.09,0000 0000 0000 0000 000000
2013-10-02 00:12:33,0.00,0.22,0.00,20.94,24.12,26.70,6.09,31.75,1016.09,2061.02,3468.00,3302.99,3584.02,350.43,326.46,29.09,0000 0000 0000 0000 000000
2013-10-02 00:13:33,0.00,0.22,0.00,20.95,24.12,26.71,6.08,31.54,1016.08,2061.05,3468.00,3302.99,3584.03,350.08,326.25,29.10,0000 0000 0000 0000 000000
2013-10-02 00:14:33,0.01,0.22,0.00,20.95,24.12,26.75,6.06,31.58,1016.11,2061.05,3468.00,3302.99,3584.03,350.45,326.48,29.11,0000 0000 0000 0000 000000
2013-10-02 00:15:34,0.01,0.22,0.00,20.94,24.12,26.77,6.05,31.29,1016.06,2061.10,3468.00,3302.99,3584.02,350.49,326.82,29.11,0000 0000 0000 0000 000000
2013-10-02 00:16:34,0.02,0.22,0.00,20.94,24.12,26.77,5.89,31.38,1016.09,2061.08,3468.00,3302.99,3584.02,349.27,325.35,29.12,0000 0000 0000 0000 000000
2013-10-02 00:17:34,-0.02,0.22,0.00,20.94,24.11,26.74,5.96,31.63,1016.09,2061.08,3468.02,3302.99,3584.03,349.92,325.74,29.12,0000 0000 0000 0000 000000
2013-10-02 00:18:35,0.01,0.22,0.00,20.94,24.10,26.77,5.98,31.63,1016.08,2061.13,3468.02,3302.99,3584.02,350.05,325.66,29.13,0000 0000 0000 0000 000000
2013-10-02 00:19:35,0.04,0.22,0.00,20.93,24.10,26.72,6.03,31.29,1016.07,2061.13,3468.00,3302.99,3584.03,350.42,326.47,29.14,0000 0000 0000 0000 000000
2013-10-02 00:20:35,-0.00,0.22,0.00,20.93,24.10,26.69,5.97,31.67,1016.11,2061.13,3468.01,3302.99,3584.06,349.51,325.16,29.14,0000 0000 0000 0000 000000
2013-10-02 00:21:35,-0.01,0.22,0.00,20.92,24.10,26.69,6.09,31.33,1016.08,2061.20,3468.02,3302.99,3584.08,350.15,326.72,29.15,0000 0000 0000 0000 000000
2013-10-02 00:22:35,0.03,0.22,0.00,20.93,24.10,26.65,5.91,31.42,1016.05,2061.22,3468.01,3302.99,3584.08,348.54,324.88,29.15,0000 0000 0000 0000 000000
2013-10-02 00:23:35,0.05,0.22,0.00,20.92,24.10,26.70,6.00,31.50,1016.09,2061.35,3468.00,3302.99,3584.07,349.81,326.09,29.16,0000 0000 0000 0000 000000
2013-10-02 00:24:36,0.07,0.22,0.00,20.93,24.09,26.67,6.16,31.88,1016.09,2061.45,3468.01,3303.00,3584.08,350.61,326.65,29.17,0000 0000 0000 0000 000000
2013-10-02 00:25:36,0.08,0.22,0.00,20.92,24.09,26.71,5.87,31.42,1016.09,2061.57,3468.04,3303.01,3584.17,350.25,326.32,29.17,0000 0000 0000 0000 000000
2013-10-02 00:26:36,0.10,0.22,0.00,20.92,24.09,26.72,5.78,31.58,1016.05,2061.67,3468.02,3303.03,3584.23,348.78,324.93,29.18,0000 0000 0000 0000 000000
2013-10-02 00:27:36,0.02,0.22,0.00,20.92,24.08,26.73,6.14,31.58,1016.09,2061.66,3468.04,3303.02,3584.26,350.39,326.45,29.18,0000 0000 0000 0000 000000
2013-10-02 00:28:36,0.05,0.22,0.00,20.92,24.07,26.67,6.03,32.00,1016.04,2061.68,3468.01,3303.02,3584.24,349.41,325.52,29.19,0000 0000 0000 0000 000000
2013-10-02 00:29:37,-0.04,0.22,0.00,20.92,24.07,26.70,6.05,31.38,1016.02,2061.55,3468.01,3303.01,3584.14,351.07,327.06,29.19,0000 0000 0000 0000 000000
2013-10-02 00:30:37,-0.03,0.22,0.00,20.91,24.07,26.66,6.06,31.79,1015.89,2061.55,3468.01,3303.00,3584.09,350.04,326.06,29.20,0000 0000 0000 0000 000000
2013-10-02 00:31:37,-0.01,0.22,0.00,20.91,24.07,26.72,5.96,31.83,1016.00,2061.57,3468.01,3303.00,3584.08,350.03,326.09,29.21,0000 0000 0000 0000 000000
2013-10-02 00:32:37,0.02,0.22,0.00,20.91,24.07,26.73,6.06,31.46,1016.02,2061.65,3468.01,3303.01,3584.09,350.76,326.79,29.21,0000 0000 0000 0000 000000
2013-10-02 00:33:38,0.09,0.22,0.00,20.91,24.07,26.71,6.03,31.29,1016.09,2061.72,3468.00,3303.04,3584.09,350.10,326.43,29.22,0000 0000 0000 0000 000000
2013-10-02 00:34:38,-0.01,0.22,0.00,20.90,24.07,26.64,6.13,31.50,1016.06,2061.70,3468.00,3303.02,3584.07,350.68,326.74,29.22,0000 0000 0000 0000 000000
2013-10-02 00:35:38,0.03,0.22,0.00,20.90,24.07,26.60,6.07,31.42,1015.98,2061.77,3468.00,3303.01,3584.06,350.16,326.09,29.23,0000 0000 0000 0000 000000
2013-10-02 00:36:38,0.05,0.22,0.00,20.89,24.06,26.68,5.99,31.88,1015.79,2061.86,3468.00,3303.02,3584.09,349.75,325.87,29.24,0000 0000 0000 0000 000000
2013-10-02 00:37:39,0.04,0.22,0.00,20.89,24.05,26.67,6.06,31.50,1015.85,2061.92,3468.00,3303.02,3584.14,349.80,326.15,29.24,0000 0000 0000 0000 000000
2013-10-02 00:38:39,0.04,0.22,0.00,20.89,24.05,26.73,6.32,31.79,1015.78,2061.95,3468.01,3303.02,3584.20,351.39,327.31,29.25,0000 0000 0000 0000 000000
2013-10-02 00:39:39,0.01,0.22,0.00,20.89,24.05,26.75,5.95,31.46,1015.79,2061.95,3468.00,3303.03,3584.16,349.67,325.98,29.25,0000 0000 0000 0000 000000
2013-10-02 00:40:39,0.01,0.22,0.00,20.89,24.05,26.71,6.13,31.75,1015.77,2061.93,3468.00,3303.01,3584.12,350.07,326.08,29.26,0000 0000 0000 0000 000000
2013-10-02 00:41:40,-0.01,0.22,0.00,20.89,24.05,26.62,5.97,31.88,1015.69,2061.94,3468.00,3303.00,3584.07,350.38,326.28,29.27,0000 0000 0000 0000 000000
2013-10-02 00:42:40,0.02,0.22,0.00,20.89,24.05,26.72,6.09,31.79,1015.76,2061.95,3468.00,3303.00,3584.04,349.94,326.24,29.27,0000 0000 0000 0000 000000
2013-10-02 00:43:40,0.01,0.22,0.00,20.89,24.04,26.69,6.15,31.88,1015.73,2061.92,3468.00,3303.00,3584.04,349.52,325.45,29.28,0000 0000 0000 0000 000000
2013-10-02 00:44:41,-0.00,0.22,0.00,20.89,24.04,26.68,6.08,31.67,1015.70,2061.95,3468.00,3303.00,3584.02,350.11,326.10,29.28,0000 0000 0000 0000 000000
2013-10-02 00:45:41,0.00,0.22,0.00,20.89,24.04,26.67,6.15,31.46,1015.73,2061.94,3468.00,3303.01,3584.03,350.82,326.78,29.29,0000 0000 0000 0000 000000
2013-10-02 00:46:41,0.00,0.22,0.00,20.88,24.03,26.61,6.03,31.58,1015.69,2061.95,3468.00,3303.00,3584.02,350.13,326.13,29.29,0000 0000 0000 0000 000000
2013-10-02 00:47:41,0.00,0.22,0.00,20.88,24.02,26.63,5.99,31.58,1015.68,2061.96,3468.00,3303.01,3584.04,350.21,326.19,29.30,0000 0000 0000 0000 000000
2013-10-02 00:48:41,0.00,0.22,0.00,20.88,24.02,26.57,5.84,31.63,1015.73,2061.95,3468.00,3303.02,3584.02,350.04,326.06,29.31,0000 0000 0000 0000 000000
2013-10-02 00:49:42,-0.02,0.22,0.00,20.87,24.02,26.61,6.08,31.58,1015.78,2061.93,3468.00,3303.00,3584.00,350.17,326.20,29.31,0000 0000 0000 0000 000000
2013-10-02 00:50:42,-0.00,0.22,0.00,20.87,24.02,26.65,6.00,31.50,1015.90,2061.96,3468.00,3303.00,3584.00,350.17,326.24,29.32,0000 0000 0000 0000 000000
2013-10-02 00:51:42,0.02,0.22,0.00,20.87,24.02,26.63,5.80,31.58,1015.94,2061.98,3468.00,3303.00,3584.00,349.00,325.16,29.32,0000 0000 0000 0000 000000
2013-10-02 00:52:42,0.01,0.22,0.00,20.87,24.02,26.65,6.03,31.46,1015.94,2061.97,3468.00,3303.00,3584.01,349.91,326.20,29.33,0000 0000 0000 0000 000000
2013-10-02 00:53:42,0.00,0.22,0.00,20.87,24.02,26.68,6.13,31.67,1015.96,2061.99,3468.00,3303.00,3584.02,350.28,326.45,29.34,0000 0000 0000 0000 000000
2013-10-02 00:54:42,0.00,0.22,0.00,20.86,24.02,26.64,5.90,31.71,1016.03,2061.99,3468.00,3303.00,3584.01,350.18,326.82,29.34,0000 0000 0000 0000 000000
2013-10-02 00:55:43,0.00,0.22,0.00,20.87,24.01,26.65,6.09,31.63,1015.92,2061.99,3468.00,3303.00,3584.01,350.99,327.43,29.35,0000 0000 0000 0000 000000
2013-10-02 00:56:43,0.00,0.22,0.00,20.87,24.00,26.65,6.07,31.58,1016.00,2061.98,3468.00,3303.00,3584.02,350.16,326.26,29.35,0000 0000 0000 0000 000000
2013-10-02 00:57:43,0.00,0.22,0.00,20.87,24.00,26.59,6.15,31.71,1016.03,2061.97,3468.00,3303.00,3584.01,350.14,326.25,29.36,0000 0000 0000 0000 000000
2013-10-02 00:58:43,0.00,0.22,0.00,20.87,24.00,26.67,6.11,31.54,1016.04,2061.99,3468.00,3303.00,3584.00,349.96,326.10,29.36,0000 0000 0000 0000 000000
2013-10-02 00:59:43,0.00,0.22,0.00,20.87,24.00,26.68,5.99,31.71,1016.06,2061.99,3468.00,3303.00,3584.00,349.75,325.91,29.37,0000 0000 0000 0000 000000
2013-10-02 01:00:44,0.00,0.22,0.00,20.86,24.00,26.64,5.93,31.71,1016.05,2061.98,3468.00,3303.00,3584.00,349.53,325.70,29.38,0000 0000 0000 0000 000000
2013-10-02 01:01:44,0.00,0.22,0.00,20.86,24.00,26.63,5.98,31.21,1016.05,2061.98,3468.00,3303.00,3584.00,349.87,326.02,29.38,0000 0000 0000 0000 000000
2013-10-02 01:02:44,0.00,0.22,0.00,20.85,24.00,26.60,6.02,31.54,1016.09,2061.99,3467.99,3303.00,3584.00,350.21,326.25,29.39,0000 0000 0000 0000 000000
2013-10-02 01:03:44,0.00,0.22,0.00,20.85,24.00,26.51,6.01,31.46,1016.10,2061.99,3467.99,3303.00,3584.00,350.29,326.52,29.39,0000 0000 0000 0000 000000
2013-10-02 01:04:44,0.00,0.22,0.00,20.85,23.99,26.54,6.06,31.88,1016.12,2061.99,3467.99,3303.00,3584.00,348.67,324.53,29.40,0000 0000 0000 0000 000000
2013-10-02 01:05:45,0.00,0.22,0.00,20.85,23.99,26.50,6.03,31.63,1016.11,2061.99,3467.99,3303.00,3584.00,349.75,326.09,29.41,0000 0000 0000 0000 000000
2013-10-02 01:06:45,0.00,0.22,0.00,20.85,23.98,26.49,5.98,31.50,1016.12,2061.98,3467.99,3303.00,3584.00,350.00,326.23,29.41,0000 0000 0000 0000 000000
2013-10-02 01:07:45,0.00,0.22,0.00,20.85,23.98,26.58,5.97,31.58,1016.12,2061.99,3467.99,3303.00,3584.01,349.55,325.76,29.42,0000 0000 0000 0000 000000
2013-10-02 01:08:45,0.00,0.22,0.00,20.86,23.97,26.51,6.03,31.50,1016.10,2061.99,3467.99,3303.00,3584.01,350.15,326.30,29.42,0000 0000 0000 0000 000000
2013-10-02 01:09:46,0.00,0.22,0.00,20.85,23.97,26.63,5.83,31.71,1016.12,2061.99,3467.99,3303.00,3584.00,349.08,325.32,29.43,0000 0000 0000 0000 000000
2013-10-02 01:10:46,0.00,0.22,0.00,20.85,23.97,26.57,6.02,31.54,1016.13,2061.99,3467.99,3303.00,3584.00,349.49,325.69,29.44,0000 0000 0000 0000 000000
2013-10-02 01:11:46,0.00,0.22,0.00,20.85,23.97,26.53,6.07,31.50,1016.13,2061.99,3467.99,3303.00,3584.00,350.70,326.58,29.44,0000 0000 0000 0000 000000
2013-10-02 01:12:47,0.00,0.22,0.00,20.86,23.97,26.59,5.97,31.29,1016.13,2061.99,3467.99,3303.00,3584.00,350.29,326.16,29.45,0000 0000 0000 0000 000000
2013-10-02 01:13:47,0.00,0.22,0.00,20.86,23.97,26.63,6.06,31.29,1016.13,2061.99,3467.99,3303.00,3584.00,350.44,326.23,29.45,0000 0000 0000 0000 000000
2013-10-02 01:14:47,0.00,0.22,0.00,20.85,23.97,26.64,6.05,31.38,1016.13,2062.00,3467.99,3303.00,3584.01,349.32,325.64,29.46,0000 0000 0000 0000 000000
2013-10-02 01:15:47,0.00,0.22,0.00,20.85,23.97,26.56,6.04,31.25,1016.13,2062.00,3467.99,3303.00,3584.00,350.40,326.94,29.46,0000 0000 0000 0000 000000
2013-10-02 01:16:48,0.00,0.22,0.00,20.86,23.97,26.56,6.06,31.25,1016.12,2062.00,3467.99,3303.00,3584.00,350.30,326.45,29.47,0000 0000 0000 0000 000000
2013-10-02 01:17:48,0.00,0.22,0.00,20.85,23.96,26.51,6.03,31.50,1016.13,2062.00,3467.99,3303.00,3584.00,350.39,326.61,29.48,0000 0000 0000 0000 000000
2013-10-02 01:18:48,0.00,0.22,0.00,20.84,23.95,26.55,5.95,31.63,1016.13,2062.00,3467.98,3303.00,3584.00,348.78,324.93,29.48,0000 0000 0000 0000 000000
2013-10-02 01:19:48,0.00,0.22,0.00,20.84,23.95,26.56,5.97,31.46,1016.13,2062.00,3467.97,3303.00,3584.00,350.55,326.66,29.49,0000 0000 0000 0000 000000
2013-10-02 01:20:49,0.00,0.22,0.00,20.84,23.95,26.52,5.94,31.50,1016.13,2062.00,3467.99,3303.01,3584.00,349.69,325.90,29.49,0000 0000 0000 0000 000000
2013-10-02 01:21:49,0.00,0.22,0.00,20.84,23.95,26.58,6.05,31.42,1016.13,2062.00,3467.99,3303.00,3584.00,350.18,326.28,29.50,0000 0000 0000 0000 000000
2013-10-02 01:22:49,0.00,0.22,0.00,20.84,23.95,26.57,6.06,31.46,1016.13,2062.00,3467.99,3303.00,3584.00,349.63,325.75,29.51,0000 0000 0000 0000 000000
2013-10-02 01:23:49,0.00,0.22,0.00,20.85,23.95,26.56,6.12,31.67,1016.13,2062.01,3467.99,3303.00,3584.00,350.48,326.89,29.51,0000 0000 0000 0000 000000
2013-10-02 01:24:49,0.01,0.22,0.00,20.83,23.95,26.58,5.98,31.38,1016.13,2062.01,3467.99,3303.00,3584.00,349.50,325.73,29.52,0000 0000 0000 0000 000000
2013-10-02 01:25:50,-0.01,0.22,0.00,20.84,23.94,26.59,5.86,31.25,1016.13,2062.00,3467.99,3303.01,3584.00,348.78,325.15,29.52,0000 0000 0000 0000 000000
2013-10-02 01:26:50,-0.00,0.22,0.00,20.84,23.94,26.47,5.99,31.54,1016.13,2062.00,3467.99,3303.00,3584.00,350.47,326.02,29.53,0000 0000 0000 0000 000000
2013-10-02 01:27:50,0.00,0.22,0.00,20.84,23.94,26.49,5.90,31.50,1016.13,2062.00,3467.99,3303.00,3584.00,349.67,326.12,29.53,0000 0000 0000 0000 000000
2013-10-02 01:28:50,0.00,0.22,0.00,20.84,23.94,26.56,6.05,31.58,1016.13,2062.01,3467.99,3303.00,3584.00,349.39,326.05,29.54,0000 0000 0000 0000 000000
2013-10-02 01:29:51,0.01,0.22,0.00,20.83,23.93,26.59,6.09,31.54,1016.13,2062.01,3467.99,3303.01,3584.00,349.99,326.18,29.55,0000 0000 0000 0000 000000
2013-10-02 01:30:51,0.00,0.22,0.00,20.83,23.92,26.51,6.00,31.42,1016.13,2062.03,3467.99,3303.00,3584.01,349.05,325.32,29.55,0000 0000 0000 0000 000000
2013-10-02 01:31:51,0.02,0.22,0.00,20.83,23.92,26.52,6.09,31.33,1016.13,2062.04,3467.99,3303.00,3584.00,350.83,326.97,29.56,0000 0000 0000 0000 000000
2013-10-02 01:32:51,0.00,0.22,0.00,20.83,23.92,26.52,6.03,31.13,1016.13,2062.01,3467.99,3303.00,3584.01,349.34,325.58,29.56,0000 0000 0000 0000 000000
2013-10-02 01:33:51,-0.02,0.22,0.00,20.83,23.92,26.59,5.98,31.29,1016.13,2062.01,3467.99,3303.00,3584.01,350.90,327.20,29.57,0000 0000 0000 0000 000000
2013-10-02 01:34:52,0.00,0.22,0.00,20.83,23.92,26.51,6.07,31.42,1016.13,2062.01,3467.99,3303.01,3584.01,349.55,325.78,29.58,0000 0000 0000 0000 000000
2013-10-02 01:35:52,0.00,0.22,0.00,20.84,23.92,26.57,6.01,31.25,1016.13,2062.03,3467.99,3303.00,3584.00,349.64,325.77,29.58,0000 0000 0000 0000 000000
2013-10-02 01:36:52,0.01,0.22,0.00,20.82,23.92,26.55,6.05,31.63,1016.13,2062.04,3467.99,3303.00,3584.01,350.29,326.46,29.59,0000 0000 0000 0000 000000
2013-10-02 01:37:52,0.00,0.22,0.00,20.82,23.92,26.60,5.98,31.46,1016.13,2062.03,3467.99,3303.00,3584.00,350.46,326.64,29.59,0000 0000 0000 0000 000000
2013-10-02 01:38:53,0.00,0.22,0.00,20.82,23.92,26.58,6.12,31.38,1016.13,2062.03,3467.99,3303.00,3584.00,350.42,326.61,29.60,0000 0000 0000 0000 000000
2013-10-02 01:39:53,0.01,0.22,0.00,20.82,23.92,26.51,6.01,31.58,1016.13,2062.04,3467.99,3303.00,3584.00,350.00,325.93,29.60,0000 0000 0000 0000 000000
2013-10-02 01:40:53,0.00,0.22,0.00,20.82,23.92,26.56,6.27,31.63,1016.13,2062.03,3467.98,3303.00,3584.00,351.73,327.82,29.61,0000 0000 0000 0000 000000
2013-10-02 01:41:53,0.00,0.22,0.00,20.82,23.91,26.52,6.17,31.63,1016.13,2062.04,3467.99,3303.00,3584.00,350.70,327.48,29.62,0000 0000 0000 0000 000000
2013-10-02 01:42:53,0.00,0.22,0.00,20.82,23.90,26.49,6.14,31.75,1016.13,2062.03,3467.97,3303.00,3584.00,351.13,326.36,29.62,0000 0000 0000 0000 000000
2013-10-02 01:43:53,0.00,0.22,0.00,20.82,23.90,26.47,5.94,31.50,1016.13,2062.05,3467.98,3303.00,3584.00,350.45,326.63,29.63,0000 0000 0000 0000 000000
2013-10-02 01:44:54,0.00,0.22,0.00,20.81,23.90,26.45,6.04,31.63,1016.13,2062.02,3467.98,3303.00,3584.00,350.62,326.23,29.63,0000 0000 0000 0000 000000
2013-10-02 01:45:54,-0.01,0.22,0.00,20.81,23.90,26.56,6.04,31.13,1016.13,2062.02,3467.99,3303.00,3584.00,351.13,327.31,29.64,0000 0000 0000 0000 000000
2013-10-02 01:46:54,0.01,0.22,0.00,20.80,23.90,26.50,6.09,31.50,1016.13,2062.02,3467.99,3303.00,3584.00,350.00,326.63,29.65,0000 0000 0000 0000 000000
2013-10-02 01:47:54,0.00,0.22,0.00,20.80,23.90,26.53,6.02,31.29,1016.13,2062.03,3467.99,3303.00,3584.00,350.32,326.54,29.65,0000 0000 0000 0000 000000
2013-10-02 01:48:54,0.00,0.22,0.00,20.79,23.90,26.56,6.13,31.33,1016.14,2062.02,3467.99,3303.00,3584.00,350.41,326.62,29.66,0000 0000 0000 0000 000000
2013-10-02 01:49:54,0.00,0.22,0.00,20.79,23.90,26.44,5.98,31.00,1016.13,2062.04,3467.99,3303.00,3584.00,349.36,325.64,29.66,0000 0000 0000 0000 000000
2013-10-02 01:50:55,0.00,0.22,0.00,20.79,23.90,26.54,6.16,31.29,1016.13,2062.05,3467.99,3303.00,3584.00,350.37,326.52,29.67,0000 0000 0000 0000 000000
2013-10-02 01:51:55,0.01,0.23,0.00,20.80,23.90,26.50,6.01,31.29,1016.13,2062.05,3467.98,3303.00,3584.00,349.99,326.41,29.68,0000 0000 0000 0000 000000
2013-10-02 01:52:55,-0.01,0.22,0.00,20.81,23.90,26.59,5.89,31.21,1016.14,2062.03,3467.99,3303.00,3584.00,349.45,325.83,29.68,0000 0000 0000 0000 000000
2013-10-02 01:53:55,0.00,0.22,0.00,20.80,23.89,26.61,6.07,31.25,1016.13,2062.07,3467.99,3303.00,3584.00,349.88,325.80,29.69,0000 0000 0000 0000 000000
2013-10-02 01:54:55,0.06,0.23,0.00,20.79,23.89,26.56,5.95,31.21,1016.13,2062.10,3467.97,3303.00,3584.00,350.60,326.52,29.69,0000 0000 0000 0000 000000
2013-10-02 01:55:56,0.00,0.23,0.00,20.79,23.88,26.54,5.97,31.08,1016.13,2062.11,3467.98,3303.00,3584.00,348.88,325.19,29.70,0000 0000 0000 0000 000000
2013-10-02 01:56:56,0.00,0.23,0.00,20.79,23.87,26.58,6.08,31.38,1016.13,2062.09,3467.98,3303.00,3584.00,349.93,326.18,29.70,0000 0000 0000 0000 000000
2013-10-02 01:57:56,0.00,0.23,0.00,20.79,23.87,26.53,6.01,31.29,1016.13,2062.09,3467.99,3303.00,3584.00,349.32,325.60,29.71,0000 0000 0000 0000 000000
2013-10-02 01:58:56,0.00,0.23,0.00,20.80,23.87,26.51,6.05,31.17,1016.13,2062.07,3467.98,3303.00,3584.00,349.34,325.62,29.72,0000 0000 0000 0000 000000
2013-10-02 01:59:56,-0.02,0.23,0.00,20.80,23.87,26.42,6.02,31.25,1016.13,2062.09,3467.98,3303.00,3584.00,350.06,326.22,29.72,0000 0000 0000 0000 000000
2013-10-02 02:00:57,0.05,0.23,0.00,20.79,23.87,26.32,5.92,31.21,1016.13,2062.12,3467.95,3303.00,3584.00,350.51,326.72,29.73,0000 0000 0000 0000 000000
2013-10-02 02:01:57,0.00,0.23,0.00,20.79,23.87,26.40,5.93,31.42,1016.13,2062.13,3467.97,3303.00,3584.00,349.66,326.16,29.73,0000 0000 0000 0000 000000
2013-10-02 02:02:57,0.00,0.23,0.00,20.79,23.87,26.43,6.02,31.17,1016.13,2062.12,3467.97,3303.00,3584.00,349.57,325.83,29.74,0000 0000 0000 0000 000000
2013-10-02 02:03:57,0.00,0.23,0.00,20.80,23.87,26.40,6.10,31.04,1016.13,2062.17,3467.95,3303.00,3584.00,350.62,326.42,29.75,0000 0000 0000 0000 000000
2013-10-02 02:04:57,0.04,0.23,0.00,20.79,23.87,26.43,6.02,30.79,1016.13,2062.16,3467.96,3303.00,3584.00,350.02,325.88,29.75,0000 0000 0000 0000 000000
2013-10-02 02:05:57,-0.01,0.23,0.00,20.79,23.87,26.46,6.04,31.00,1016.13,2062.20,3467.98,3303.00,3584.00,350.52,326.09,29.76,0000 0000 0000 0000 000000
2013-10-02 02:06:57,0.02,0.23,0.00,20.79,23.87,26.51,5.87,30.96,1016.13,2062.26,3467.98,3303.00,3584.00,349.59,326.00,29.76,0000 0000 0000 0000 000000
2013-10-02 02:07:58,0.05,0.23,0.00,20.79,23.86,26.50,6.10,31.08,1016.13,2062.35,3467.99,3303.00,3584.00,350.82,326.95,29.77,0000 0000 0000 0000 000000
2013-10-02 02:08:58,0.06,0.23,0.00,20.79,23.86,26.52,5.93,31.21,1016.13,2062.43,3467.98,3303.00,3584.00,349.19,325.52,29.77,0000 0000 0000 0000 000000
2013-10-02 02:09:58,0.08,0.23,0.00,20.79,23.85,26.43,6.20,31.21,1016.13,2062.43,3467.97,3303.01,3584.00,350.70,326.90,29.78,0000 0000 0000 0000 000000
2013-10-02 02:10:58,-0.03,0.23,0.00,20.79,23.85,26.39,6.02,30.88,1016.13,2062.47,3467.97,3303.00,3584.00,349.62,326.11,29.79,0000 0000 0000 0000 000000
2013-10-02 02:11:59,0.04,0.23,0.00,20.79,23.85,26.43,5.97,30.96,1016.13,2062.68,3467.98,3303.01,3584.00,349.45,325.75,29.79,0000 0000 0000 0000 000000
2013-10-02 02:12:59,0.20,0.23,0.00,20.79,23.85,26.37,5.95,31.29,1016.13,2062.82,3467.98,3303.00,3584.00,349.58,326.10,29.80,0000 0000 0000 0000 000000
2013-10-02 02:13:59,0.07,0.23,0.00,20.79,23.85,26.41,6.12,31.21,1016.13,2062.80,3467.99,3303.00,3584.00,350.20,326.33,29.80,0000 0000 0000 0000 000000
2013-10-02 02:14:59,-0.03,0.23,0.00,20.79,23.85,26.36,5.94,31.25,1016.13,2062.73,3467.98,3303.02,3584.00,349.50,325.93,29.81,0000 0000 0000 0000 000000
2013-10-02 02:15:59,-0.06,0.23,0.00,20.79,23.85,26.45,6.03,30.71,1016.13,2062.77,3467.98,3303.02,3584.00,349.93,326.30,29.82,0000 0000 0000 0000 000000
2013-10-02 02:17:00,0.09,0.23,0.00,20.79,23.85,26.42,6.02,30.83,1016.13,2062.86,3467.99,3303.02,3584.00,351.07,327.20,29.82,0000 0000 0000 0000 000000
2013-10-02 02:18:00,0.03,0.23,0.00,20.79,23.85,26.50,5.89,31.17,1016.13,2062.92,3467.99,3303.02,3584.01,349.07,325.45,29.83,0000 0000 0000 0000 000000
2013-10-02 02:19:00,0.05,0.23,0.00,20.79,23.84,26.51,6.21,31.25,1016.12,2062.95,3467.97,3303.01,3584.00,350.11,326.99,29.83,0000 0000 0000 0000 000000
2013-10-02 02:20:00,0.02,0.23,0.00,20.79,23.85,26.51,5.98,30.92,1016.12,2062.97,3467.97,3303.00,3584.00,351.02,326.91,29.84,0000 0000 0000 0000 000000
2013-10-02 02:21:01,0.01,0.23,0.00,20.79,23.84,26.48,5.99,31.17,1016.12,2062.95,3467.99,3303.01,3584.03,349.61,325.88,29.84,0000 0000 0000 0000 000000
2013-10-02 02:22:01,-0.02,0.23,0.00,20.79,23.84,26.46,6.04,31.38,1016.13,2062.93,3467.98,3303.00,3584.01,349.61,325.88,29.85,0000 0000 0000 0000 000000
2013-10-02 02:23:01,0.00,0.23,0.00,20.78,23.83,26.49,6.12,31.17,1016.13,2062.94,3467.98,3303.01,3584.00,350.44,326.67,29.86,0000 0000 0000 0000 000000
2013-10-02 02:24:01,0.01,0.23,0.00,20.79,23.83,26.51,5.94,31.13,1016.13,2062.97,3467.96,3303.01,3584.01,350.71,326.91,29.86,0000 0000 0000 0000 000000
2013-10-02 02:25:02,0.00,0.23,0.00,20.79,23.82,26.53,6.09,31.17,1016.13,2062.95,3467.97,3303.03,3584.01,349.94,326.20,29.87,0000 0000 0000 0000 000000
2013-10-02 02:26:02,-0.02,0.23,0.00,20.77,23.82,26.52,6.09,31.08,1016.11,2062.93,3467.95,3303.02,3584.00,349.90,326.15,29.87,0000 0000 0000 0000 000000
2013-10-02 02:27:02,0.00,0.23,0.00,20.78,23.82,26.46,6.02,31.38,1016.09,2062.95,3467.97,3303.00,3584.00,349.54,326.19,29.88,0000 0000 0000 0000 000000
2013-10-02 02:28:02,0.01,0.23,0.00,20.79,23.82,26.48,6.06,31.17,1016.10,2062.96,3467.96,3303.00,3584.00,350.14,326.37,29.89,0000 0000 0000 0000 000000
2013-10-02 02:29:03,0.01,0.23,0.00,20.79,23.82,26.46,5.98,31.21,1016.06,2062.96,3467.96,3303.00,3584.00,350.09,326.30,29.89,0000 0000 0000 0000 000000
2013-10-02 02:30:03,0.00,0.23,0.00,20.78,23.82,26.41,6.09,31.42,1016.06,2062.95,3467.95,3303.01,3584.00,350.60,327.16,29.90,0000 0000 0000 0000 000000
2013-10-02 02:31:03,-0.00,0.23,0.00,20.78,23.82,26.45,6.03,31.17,1016.02,2062.95,3467.97,3303.00,3584.00,350.37,326.56,29.90,0000 0000 0000 0000 000000
2013-10-02 02:32:03,-0.02,0.23,0.00,20.79,23.82,26.37,6.04,31.29,1016.03,2062.95,3467.98,3303.00,3584.00,349.83,326.06,29.91,0000 0000 0000 0000 000000
2013-10-02 02:33:04,0.01,0.23,0.00,20.78,23.82,26.43,6.13,31.17,1016.01,2062.97,3467.97,3303.00,3584.00,350.43,326.53,29.91,0000 0000 0000 0000 000000
2013-10-02 02:34:04,0.01,0.23,0.00,20.78,23.82,26.35,6.00,31.29,1015.92,2062.99,3467.97,3303.00,3584.00,349.44,325.84,29.92,0000 0000 0000 0000 000000
2013-10-02 02:35:04,0.01,0.23,0.00,20.77,23.82,26.43,6.16,31.46,1015.87,2062.98,3467.96,3303.00,3584.00,350.79,327.19,29.93,0000 0000 0000 0000 000000
2013-10-02 02:36:04,-0.00,0.23,0.00,20.77,23.82,26.51,6.05,31.54,1015.90,2062.97,3467.91,3303.00,3584.00,350.58,326.70,29.93,0000 0000 0000 0000 000000